KF5JED-13 Weather Reports


time (UTC)temp
F
wind
direction
speed
knots
gust
knots
rain 1hr
in
rain 24hr
in
rain mn
in
humidity
%
barometer
mb
20260904122426 65 195 2.6 3.5 0.00 0.00 0.00 86 1015.2
20260904121920 65 178 2.6 3.5 0.00 0.00 0.00 85 1015.0
20260904121417 66 159 1.7 2.6 0.00 0.00 0.00 83 1015.1
20260904120913 68 199 2.6 3.5 0.00 0.00 0.00 81 1015.2
20260904120409 67 216 1.7 1.7 0.00 0.00 0.00 82 1015.1
20260904115904 67 299 0.9 1.7 0.00 0.00 0.00 82 1015.2
20260904115359 67 129 0.0 0.9 0.00 0.00 0.00 82 1015.1
20260904114853 67 145 0.9 1.7 0.00 0.00 0.00 82 1014.9
20260904114348 67 202 1.7 1.7 0.00 0.00 0.00 83 1015.1
20260904113843 67 142 1.7 2.6 0.00 0.00 0.00 82 1015.0
20260904113343 67 191 1.7 2.6 0.00 0.00 0.00 82 1015.1
20260904112837 68 169 2.6 3.5 0.00 0.00 0.00 80 1014.9
20260904112333 68 148 2.6 4.3 0.00 0.00 0.00 80 1015.1
20260904111828 69 154 3.5 3.5 0.00 0.00 0.00 79 1015.1
20260904111324 69 198 4.3 6.1 0.00 0.00 0.00 77 1015.1
20260904110820 69 173 2.6 3.5 0.00 0.00 0.00 78 1015.1
20260904110319 70 186 3.5 4.3 0.00 0.00 0.00 77 1015.0
20260904105813 71 168 4.3 5.2 0.00 0.00 0.00 74 1014.8
20260904105308 71 139 3.5 5.2 0.00 0.00 0.00 73 1014.7
20260904104803 72 156 4.3 5.2 0.00 0.00 0.00 72 1014.7
20260904104259 72 164 4.3 6.1 0.00 0.00 0.00 72 1014.8
20260904103756 72 141 4.3 6.1 0.00 0.00 0.00 72 1014.7
20260904103255 72 158 7.0 8.7 0.00 0.00 0.00 72 1014.7
20260904102751 72 161 6.1 7.0 0.00 0.00 0.00 72 1014.7
20260904102246 71 146 5.2 7.0 0.00 0.00 0.00 73 1014.8
20260904101742 71 147 6.1 6.1 0.00 0.00 0.00 72 1014.6
20260904101238 71 146 4.3 7.0 0.00 0.00 0.00 72 1014.5
20260904100734 72 148 5.2 6.1 0.00 0.00 0.00 72 1014.5
20260904100230 72 147 4.3 7.0 0.00 0.00 0.00 71 1014.3
20260904095729 72 140 3.5 6.1 0.00 0.00 0.00 71 1014.3
20260904095224 72 134 5.2 7.0 0.00 0.00 0.00 70 1014.5
20260904094720 73 133 5.2 7.8 0.00 0.00 0.00 69 1014.3
20260904094219 73 143 7.0 8.7 0.00 0.00 0.00 69 1014.1
20260904093716 73 138 5.2 10.4 0.00 0.00 0.00 69 1014.2
20260904093215 73 138 7.8 10.4 0.00 0.00 0.00 68 1014.1
20260904092711 73 136 6.1 9.6 0.00 0.00 0.00 68 1014.1
20260904092207 73 126 7.0 10.4 0.00 0.00 0.00 68 1014.1
20260904091703 73 131 7.8 9.6 0.00 0.00 0.00 68 1014.3
20260904091158 73 134 5.2 9.6 0.00 0.00 0.00 67 1013.9
20260904090654 73 140 6.1 9.6 0.00 0.00 0.00 66 1014.5
20260904090149 73 148 6.1 10.4 0.00 0.00 0.00 67 1014.5
20260904085644 73 150 7.8 10.4 0.00 0.00 0.00 67 1014.1
20260904085143 73 151 6.1 8.7 0.00 0.00 0.00 67 1014.1
20260904084639 73 148 5.2 6.1 0.00 0.00 0.00 68 1014.3
20260904084135 73 156 6.1 7.8 0.00 0.00 0.00 67 1014.5
20260904083631 74 147 5.2 10.4 0.00 0.00 0.00 66 1014.5
20260904083127 74 160 6.1 8.7 0.00 0.00 0.00 65 1014.6
20260904082621 74 144 7.8 10.4 0.00 0.00 0.00 64 1014.6
20260904082117 74 148 7.0 11.3 0.00 0.00 0.00 64 1014.5
20260904081612 74 153 5.2 10.4 0.00 0.00 0.00 64 1014.5
20260904081108 74 153 5.2 8.7 0.00 0.00 0.00 64 1014.3
20260904080603 74 148 7.0 10.4 0.00 0.00 0.00 64 1014.6
20260904080059 74 151 9.6 11.3 0.00 0.00 0.00 63 1014.3
20260904075555 75 148 6.1 9.6 0.00 0.00 0.00 63 1014.2
20260904075050 75 145 7.8 10.4 0.00 0.00 0.00 62 1014.5
20260904074548 75 140 6.1 11.3 0.00 0.00 0.00 61 1014.6
20260904074038 75 156 5.2 10.4 0.00 0.00 0.00 62 1014.3
20260904073533 76 139 6.1 8.7 0.00 0.00 0.00 62 1014.2
20260904073030 76 149 7.8 9.6 0.00 0.00 0.00 61 1014.5
20260904072525 76 159 7.8 11.3 0.00 0.00 0.00 62 1014.3
20260904072020 75 154 10.4 12.2 0.00 0.00 0.00 62 1014.5
20260904071515 75 159 7.8 12.2 0.00 0.00 0.00 63 1014.3
20260904071010 75 156 7.0 11.3 0.00 0.00 0.00 64 1014.6
20260904070509 74 158 7.8 9.6 0.00 0.00 0.00 65 1014.7
20260904070004 73 162 7.0 8.7 0.00 0.00 0.00 68 1014.6
20260904065459 72 157 4.3 7.0 0.00 0.00 0.00 71 1014.6
20260904064955 72 155 5.2 7.0 0.00 0.00 0.00 72 1014.6
20260904064451 72 169 5.2 6.1 0.00 0.00 0.00 70 1014.7
20260904063945 73 168 5.2 7.8 0.00 0.00 0.00 69 1014.8
20260904063442 73 153 4.3 9.6 0.00 0.00 0.00 68 1014.8
20260904062937 74 149 5.2 9.6 0.00 0.00 0.00 67 1014.7
20260904062433 73 157 6.1 9.6 0.00 0.00 0.00 68 1014.8
20260904061928 74 156 10.4 11.3 0.00 0.00 0.00 67 1014.8
20260904061425 73 157 7.0 10.4 0.00 0.00 0.00 68 1015.0
20260904060921 73 149 6.1 10.4 0.00 0.00 0.00 69 1015.0
20260904060416 73 159 8.7 10.4 0.00 0.00 0.00 68 1014.9
20260904055912 73 153 8.7 11.3 0.00 0.00 0.00 68 1014.9
20260904055407 73 160 7.0 10.4 0.00 0.00 0.00 69 1015.0
20260904054903 73 140 6.1 10.4 0.00 0.00 0.00 69 1014.9
20260904054358 72 154 5.2 9.6 0.00 0.00 0.00 71 1014.9
20260904053854 73 160 7.8 11.3 0.00 0.00 0.00 71 1015.1
20260904053353 73 152 7.0 10.4 0.00 0.00 0.00 71 1015.0
20260904052849 73 157 8.7 10.4 0.00 0.00 0.00 71 1015.1
20260904052345 73 160 7.0 11.3 0.00 0.00 0.00 70 1015.1
20260904051841 74 155 7.8 13.0 0.00 0.00 0.00 68 1015.1
20260904051337 74 157 5.2 8.7 0.00 0.00 0.00 68 1015.1
20260904050836 74 151 4.3 9.6 0.00 0.00 0.00 67 1015.0
20260904050333 74 140 6.1 8.7 0.00 0.00 0.00 67 1014.9
20260904045827 74 128 6.1 9.6 0.00 0.26 0.26 67 1014.8
20260904045322 74 128 11.3 13.0 0.00 0.26 0.26 66 1014.9
20260904044817 73 132 7.0 10.4 0.00 0.26 0.26 66 1015.1
20260904044314 73 140 7.8 11.3 0.00 0.26 0.26 66 1014.8
20260904043809 74 144 7.8 9.6 0.00 0.26 0.26 64 1014.8
20260904043306 75 145 8.7 13.0 0.00 0.26 0.26 62 1015.0
20260904042801 75 135 5.2 12.2 0.00 0.26 0.26 62 1015.2
20260904042257 75 127 9.6 13.0 0.00 0.26 0.26 61 1015.0
20260904041756 75 143 7.8 12.2 0.00 0.26 0.26 61 1015.2
20260904041253 76 121 6.1 12.2 0.00 0.26 0.26 59 1015.0
20260904040748 76 128 13.0 15.6 0.00 0.26 0.26 57 1015.0
20260904040244 75 127 3.5 11.3 0.00 0.26 0.26 60 1015.0
20260904035740 76 95 2.6 7.8 0.00 0.26 0.26 60 1015.2
20260904035235 76 144 6.1 9.6 0.00 0.26 0.26 59 1014.8
20260904034734 75 116 5.2 11.3 0.00 0.26 0.26 61 1015.3
20260904034230 76 131 9.6 11.3 0.00 0.26 0.26 61 1015.1
20260904033725 75 118 5.2 11.3 0.00 0.26 0.26 62 1015.2
20260904033222 75 127 4.3 7.0 0.00 0.26 0.26 62 1015.0
20260904032718 75 106 4.3 7.0 0.00 0.26 0.26 63 1015.1
20260904032217 75 98 3.5 6.1 0.00 0.26 0.26 63 1014.9
20260904031712 74 108 2.6 7.0 0.00 0.26 0.26 65 1015.0
20260904031207 74 109 6.1 7.8 0.00 0.26 0.26 66 1015.0
20260904030703 75 88 4.3 7.0 0.00 0.26 0.26 63 1014.9
20260904030158 76 106 6.1 10.4 0.00 0.26 0.26 61 1014.8
20260904025655 77 113 7.8 12.2 0.00 0.26 0.26 59 1014.7
20260904025149 77 129 7.0 13.0 0.00 0.26 0.26 58 1014.3
20260904024645 77 125 7.0 12.2 0.00 0.26 0.26 58 1014.5
20260904024140 78 141 7.8 13.0 0.00 0.26 0.26 56 1014.5
20260904023636 77 137 12.2 13.9 0.00 0.26 0.26 58 1014.5
20260904023131 79 131 9.6 13.0 0.00 0.26 0.26 54 1014.2
20260904022631 79 144 7.8 14.8 0.00 0.26 0.26 54 1014.3
20260904022128 79 146 7.0 11.3 0.00 0.26 0.26 53 1014.0
20260904021624 79 136 10.4 13.0 0.00 0.26 0.26 53 1014.2
20260904021118 78 139 5.2 11.3 0.00 0.26 0.26 54 1014.2
20260904020614 78 128 7.8 11.3 0.00 0.26 0.26 55 1014.3
20260904015557 77 116 4.3 8.7 0.00 0.26 0.26 58 1014.2
20260904015056 78 126 7.0 10.4 0.00 0.26 0.26 56 1014.1
20260904014555 79 97 3.5 10.4 0.00 0.26 0.26 55 1014.0
20260904014051 80 87 6.1 12.2 0.00 0.26 0.26 54 1013.8
20260904013548 80 123 8.7 13.0 0.00 0.26 0.26 54 1013.8
20260904013039 80 133 12.2 19.1 0.00 0.26 0.26 53 1013.9
20260904012538 82 114 5.2 11.3 0.00 0.26 0.26 49 1013.9
20260904012038 81 138 9.6 16.5 0.00 0.26 0.26 49 1013.7
20260904011532 78 93 3.5 10.4 0.00 0.26 0.26 60 1014.1
20260904011027 80 118 12.2 22.6 0.00 0.26 0.26 54 1014.0
20260904010524 78 143 14.8 21.7 0.00 0.26 0.26 62 1013.9
20260904010019 78 149 13.0 20.0 0.00 0.26 0.26 57 1014.0
20260904005514 81 144 13.0 17.4 0.00 0.26 0.26 50 1013.9
20260904005009 79 141 3.5 7.8 0.00 0.26 0.26 56 1014.1
20260904004504 78 140 4.3 9.6 0.00 0.26 0.26 58 1014.2
20260904003959 78 127 6.1 12.2 0.00 0.26 0.26 57 1014.3
20260904003455 78 136 11.3 13.9 0.00 0.26 0.26 58 1014.7
20260904002950 77 97 8.7 9.6 0.00 0.26 0.26 67 1014.7
20260904002446 77 137 7.8 16.5 0.00 0.26 0.26 68 1015.0
20260904001944 76 166 12.2 14.8 0.00 0.26 0.26 71 1015.3
20260904001441 78 150 10.4 13.0 0.00 0.26 0.26 62 1015.0
20260904000935 79 148 5.2 9.6 0.00 0.26 0.26 61 1015.1
20260904000434 78 148 7.8 12.2 0.00 0.26 0.26 63 1015.2
20260903235930 78 147 8.7 10.4 0.00 0.26 0.26 59 1014.9
20260903235426 79 170 8.7 13.9 0.00 0.26 0.26 59 1014.9
20260903234920 80 157 8.7 13.9 0.00 0.26 0.26 57 1014.6
20260903234416 79 94 7.8 8.7 0.00 0.26 0.26 56 1013.9
20260903233912 78 104 7.0 11.3 0.00 0.26 0.26 59 1013.8
20260903233408 78 79 9.6 13.0 0.00 0.26 0.26 58 1013.6
20260903232902 78 82 9.6 11.3 0.00 0.26 0.26 63 1013.6
20260903232357 80 80 7.8 13.9 0.00 0.26 0.26 56 1013.6
20260903231856 80 112 10.4 13.9 0.00 0.26 0.26 59 1013.9
20260903231351 80 138 10.4 16.5 0.00 0.26 0.26 57 1014.0
20260903230847 81 142 8.7 14.8 0.00 0.26 0.26 57 1013.6
20260903230342 85 157 12.2 15.6 0.00 0.26 0.26 50 1013.7
20260903225838 86 148 6.1 7.8 0.00 0.26 0.26 46 1013.6
20260903225334 86 101 3.5 7.8 0.00 0.26 0.26 43 1013.7
20260903224830 85 102 6.1 9.6 0.00 0.26 0.26 47 1013.3
20260903224326 83 130 3.5 6.1 0.00 0.26 0.26 51 1013.8
20260903223822 83 70 7.0 10.4 0.00 0.26 0.26 49 1013.6
20260903223320 84 76 7.8 12.2 0.00 0.26 0.26 48 1013.8
20260903222815 80 101 5.2 11.3 0.00 0.26 0.26 55 1014.1
20260903222314 76 89 7.0 7.8 0.02 0.26 0.26 69 1014.1
20260903221809 75 354 5.2 9.6 0.61 0.26 0.26 68 1014.0
20260903221308 74 62 9.6 21.7 1.21 0.25 0.25 70 1013.9
20260903220806 77 127 5.2 13.0 0.92 0.15 0.15 65 1015.0
20260903220301 78 248 16.5 21.7 0.31 0.05 0.05 84 1013.8
20260903215753 92 284 8.7 14.8 0.00 0.00 0.00 34 1013.6
20260903215250 93 339 6.1 14.8 0.00 0.00 0.00 31 1013.1
20260903214747 93 328 7.8 13.9 0.00 0.00 0.00 31 1013.3
20260903214239 94 301 7.0 13.0 0.00 0.00 0.00 29 1013.2
20260903213732 94 304 5.2 11.3 0.00 0.00 0.00 29 1013.1
20260903213228 94 246 7.8 12.2 0.00 0.00 0.00 29 1013.2
20260903212724 98 210 8.7 10.4 0.00 0.00 0.00 28 1013.2
20260903212220 99 189 8.7 12.2 0.00 0.00 0.00 27 1012.9
20260903211713 101 224 7.8 14.8 0.00 0.00 0.00 25 1013.1
20260903211210 101 183 3.5 7.0 0.00 0.00 0.00 25 1013.1
20260903210706 101 311 3.5 4.3 0.00 0.00 0.00 25 1013.0
20260903210202 100 245 3.5 8.7 0.00 0.00 0.00 25 1013.3
20260903205701 100 209 8.7 13.9 0.00 0.00 0.00 25 1013.3
20260903205200 101 212 10.4 15.6 0.00 0.00 0.00 26 1013.5
20260903204656 101 251 1.7 5.2 0.00 0.00 0.00 25 1013.7
20260903204152 101 244 3.5 6.1 0.00 0.00 0.00 25 1013.6
20260903203647 100 142 4.3 10.4 0.00 0.00 0.00 26 1013.7
20260903203142 101 186 4.3 7.8 0.00 0.00 0.00 25 1013.9
20260903202637 101 205 6.1 7.0 0.00 0.00 0.00 25 1013.7
20260903202132 102 186 7.0 11.3 0.00 0.00 0.00 25 1013.9
20260903201626 101 169 6.1 12.2 0.00 0.00 0.00 26 1014.0
20260903201126 100 213 5.2 9.6 0.00 0.00 0.00 26 1013.8
20260903200621 99 217 13.9 16.5 0.00 0.00 0.00 26 1013.9
20260903200116 99 207 8.7 13.0 0.00 0.00 0.00 27 1014.2
20260903195612 101 163 4.3 8.7 0.00 0.00 0.00 25 1014.1
20260903195108 99 151 3.5 5.2 0.00 0.00 0.00 27 1014.2
20260903194602 101 163 3.5 9.6 0.00 0.00 0.00 26 1014.3
20260903194057 100 212 8.7 10.4 0.00 0.00 0.00 27 1014.6
20260903193554 99 216 9.6 11.3 0.00 0.00 0.00 27 1014.5
20260903193049 100 175 3.5 5.2 0.00 0.00 0.00 27 1014.5
20260903192545 99 206 8.7 12.2 0.00 0.00 0.00 27 1014.5
20260903192040 99 203 11.3 18.2 0.00 0.00 0.00 27 1014.5
20260903191536 99 147 4.3 8.7 0.00 0.00 0.00 28 1014.6
20260903191030 100 168 1.7 7.0 0.00 0.00 0.00 27 1014.8
20260903190524 98 301 5.2 5.2 0.00 0.00 0.00 29 1014.7
20260903190024 98 259 7.8 14.8 0.00 0.00 0.00 29 1014.9
20260903185519 98 268 3.5 7.0 0.00 0.00 0.00 29 1015.1
20260903185015 98 230 7.0 10.4 0.00 0.00 0.00 29 1015.1
20260903184506 97 246 3.5 7.8 0.00 0.00 0.00 29 1015.3
20260903184005 98 287 3.5 5.2 0.00 0.00 0.00 28 1015.2
20260903183500 98 230 7.0 9.6 0.00 0.00 0.00 28 1015.3
20260903182959 97 235 7.8 10.4 0.00 0.00 0.00 29 1015.5
20260903182458 97 228 6.1 8.7 0.00 0.00 0.00 29 1015.6
20260903181954 97 237 7.0 10.4 0.00 0.00 0.00 30 1015.7
20260903181448 96 238 5.2 13.0 0.00 0.00 0.00 30 1015.8
20260903180947 96 240 10.4 13.9 0.00 0.00 0.00 30 1015.7
20260903180443 96 219 6.1 7.8 0.00 0.00 0.00 31 1015.8
20260903175942 96 214 9.6 15.6 0.00 0.00 0.00 30 1015.8
20260903175437 96 230 5.2 7.8 0.00 0.00 0.00 31 1016.0
20260903174936 96 248 5.2 11.3 0.00 0.00 0.00 31 1016.0
20260903174432 96 239 11.3 12.2 0.00 0.00 0.00 31 1015.9
20260903173931 95 224 11.3 17.4 0.00 0.00 0.00 32 1016.2
20260903173426 95 218 6.1 17.4 0.00 0.00 0.00 32 1016.1
20260903172922 96 216 13.0 15.6 0.00 0.00 0.00 32 1015.9
20260903172416 96 215 9.6 14.8 0.00 0.00 0.00 32 1016.0
20260903171912 95 210 13.9 17.4 0.00 0.00 0.00 33 1016.0
20260903171407 95 209 9.6 16.5 0.00 0.00 0.00 33 1015.9
20260903170901 95 205 6.1 13.0 0.00 0.00 0.00 33 1016.1
20260903170356 95 210 11.3 18.2 0.00 0.00 0.00 33 1016.0
20260903165855 94 229 11.3 15.6 0.00 0.00 0.00 33 1016.1
20260903165349 93 215 14.8 16.5 0.00 0.00 0.00 33 1016.2
20260903164844 93 234 11.3 13.9 0.00 0.00 0.00 33 1016.2
20260903164339 94 221 9.6 14.8 0.00 0.00 0.00 33 1015.9
20260903163838 94 223 10.4 16.5 0.00 0.00 0.00 33 1016.1
20260903163335 93 217 12.2 14.8 0.00 0.00 0.00 33 1016.2
20260903162831 93 216 13.9 16.5 0.00 0.00 0.00 33 1016.1
20260903162327 93 216 14.8 17.4 0.00 0.00 0.00 34 1016.1
20260903161823 92 211 9.6 12.2 0.00 0.00 0.00 35 1016.0
20260903161318 92 211 8.7 12.2 0.00 0.00 0.00 35 1016.0
20260903160814 92 212 12.2 14.8 0.00 0.00 0.00 36 1015.9
20260903160312 91 217 11.3 13.0 0.00 0.00 0.00 37 1016.3
20260903155811 91 227 8.7 11.3 0.00 0.00 0.00 38 1016.2
20260903155307 90 239 9.6 12.2 0.00 0.00 0.00 39 1016.3
20260903154801 89 219 7.0 13.9 0.00 0.00 0.00 40 1016.3
20260903154258 89 239 5.2 13.9 0.00 0.00 0.00 40 1016.1
20260903153753 88 214 11.3 11.3 0.00 0.00 0.00 41 1016.2
20260903153249 87 226 7.8 13.0 0.00 0.00 0.00 43 1016.1
20260903152745 87 213 8.7 13.0 0.00 0.00 0.00 43 1016.2
20260903152241 86 237 7.0 10.4 0.00 0.00 0.00 44 1016.3
20260903151741 85 217 7.8 10.4 0.00 0.00 0.00 45 1016.3
20260903151236 85 213 9.6 10.4 0.00 0.00 0.00 46 1016.2
20260903150731 82 227 5.2 9.6 0.00 0.00 0.00 50 1016.1
20260903150225 82 226 6.1 8.7 0.00 0.00 0.00 50 1016.2
20260903145725 81 217 5.2 9.6 0.00 0.00 0.00 49 1016.2
20260903145221 81 215 7.8 11.3 0.00 0.00 0.00 49 1016.3
20260903144719 80 224 7.0 10.4 0.00 0.00 0.00 50 1016.5
20260903144215 80 211 10.4 11.3 0.00 0.00 0.00 51 1016.3
20260903143711 79 198 7.0 10.4 0.00 0.00 0.00 52 1016.3
20260903143207 78 216 8.7 12.2 0.00 0.00 0.00 52 1016.3
20260903142702 78 200 7.0 8.7 0.00 0.00 0.00 53 1016.3
20260903142159 77 206 7.0 8.7 0.00 0.00 0.00 53 1016.3
20260903141654 77 208 5.2 10.4 0.00 0.00 0.00 53 1016.3
20260903141149 76 204 8.7 8.7 0.00 0.00 0.00 54 1016.6
20260903140644 76 212 7.0 7.8 0.00 0.00 0.00 56 1016.6
20260903140140 75 206 4.3 8.7 0.00 0.00 0.00 57 1016.6
20260903135635 75 198 6.1 7.0 0.00 0.00 0.00 57 1016.2
20260903135130 75 197 5.2 8.7 0.00 0.00 0.00 57 1016.3
20260903134628 75 191 7.8 8.7 0.00 0.00 0.00 57 1016.3
20260903134120 75 195 7.0 9.6 0.00 0.00 0.00 56 1016.5
20260903133617 75 189 4.3 9.6 0.00 0.00 0.00 57 1016.2
20260903133113 74 195 4.3 10.4 0.00 0.00 0.00 57 1016.2
20260903132608 73 182 5.2 8.7 0.00 0.00 0.00 58 1016.2
20260903132107 73 203 5.2 7.8 0.00 0.00 0.00 60 1016.3
20260903131602 72 188 5.2 7.0 0.00 0.00 0.00 60 1016.2
20260903131101 71 170 3.5 7.0 0.00 0.00 0.00 62 1016.1
20260903130556 70 178 5.2 6.1 0.00 0.00 0.00 64 1015.9
20260903130051 69 178 5.2 6.1 0.00 0.00 0.00 65 1016.1
20260903125549 69 185 3.5 7.0 0.00 0.00 0.00 66 1016.1
20260903125044 69 204 3.5 5.2 0.00 0.00 0.00 66 1016.0
20260903124539 68 198 3.5 5.2 0.00 0.00 0.00 66 1015.7
20260903124038 68 208 5.2 5.2 0.00 0.00 0.00 66 1015.7
20260903123538 68 207 5.2 6.1 0.00 0.00 0.00 66 1015.9
20260903123037 68 210 4.3 7.0 0.00 0.00 0.00 66 1015.7